sat.trackr.live / text

‹ back to catalog

STARLINK-35560

NORAD 66059 · 2025-235B

PAYLOAD ACTIVE UNKNOWN

§ Identity

Operator
Country
US
Launch date
2025-10-19
Launch site
AFETR
Launch vehicle
Mass (kg)
RCS (m²)

Purposes: comms

External: N2YO · Heavens-Above · Gunter

§ Orbital elements

Epoch: 2026-09-20T04:03:05.520096Z

Period
93.85 min
Inclination
53.1588°
Eccentricity
0.0000697
Mean motion
15.34416869 rev/d
Perigee alt
462.2 km
Apogee alt
463.1 km
Semi-major
6,840.8 km
B*
5.8829e-4
RAAN
59.3448°
Arg perigee
38.8057°
Mean anomaly
321.2996°
Rev number
5,273

§ Raw data

STARLINK-355601 66059U 25235B   26263.16881389  .00019563  00000+0  58829-3 0  99942 66059  53.1588  59.3448 0000697  38.8057 321.2996 15.34416869 52730

JSON: /api/v1/satellites/66059 · /tle

For live sub-satellite position, see the globe view (requires WebGL).

§ Visibility from observer

Set your observer location to see the next 7 days of passes ≥ 10°. The values pass through the URL so the page stays shareable.

No JS? Fill the form by hand. The geolocation button needs JavaScript.